CST,Max TemperatureF,Mean TemperatureF,Min TemperatureF,Max Dew PointF,MeanDew PointF,Min DewpointF,Max Humidity, Mean Humidity, Min Humidity, Max Sea Level PressureIn, Mean Sea Level PressureIn, Min Sea Level PressureIn, Max VisibilityMiles, Mean VisibilityMiles, Min VisibilityMiles, Max Wind SpeedMPH, Mean Wind SpeedMPH, Max Gust SpeedMPH,PrecipitationIn, CloudCover, Events, WindDirDegrees
2013-2-1,66,48,30,21,16,14,59,31,13,30.32,30.27,30.19,10,10,7,18,8,25,0.00,0,,187
2013-2-2,62,48,33,23,16,13,56,29,16,30.42,30.35,30.26,10,10,10,14,8,20,0.00,0,,295
2013-2-3,63,46,29,29,24,21,74,44,21,30.41,30.22,30.07,10,10,10,17,6,23,0.00,2,,188
2013-2-4,68,56,43,32,29,24,52,35,25,30.11,30.06,30.02,10,10,10,25,10,38,0.00,1,,236
2013-2-5,67,52,38,34,30,26,69,45,25,30.14,30.09,30.04,10,10,10,17,7,24,0.00,0,,206
2013-2-6,70,54,37,34,31,29,71,46,24,30.08,30.03,29.96,10,10,10,16,7,23,0.00,1,,188
2013-2-7,66,51,35,32,26,22,63,40,19,30.25,30.15,30.04,10,10,7,14,6,23,0.00,0,,306
2013-2-8,63,48,34,35,30,23,76,52,32,30.26,30.16,30.03,10,10,5,20,5,28,0.00,0,,136
2013-2-9,74,62,49,38,28,14,59,33,14,30.03,29.88,29.76,10,9,4,31,13,48,0.00,2,,181
2013-2-10,60,48,36,21,18,15,44,31,22,30.07,30.00,29.94,10,10,10,21,8,24,0.00,0,,213
2013-2-11,66,48,31,35,25,17,70,44,19,30.07,30.00,29.90,10,10,4,22,7,32,0.00,1,,198
2013-2-12,53,42,31,32,15,0,72,35,12,30.19,30.06,29.94,10,10,10,31,12,41,0.00,0,,248
2013-2-13,56,38,21,21,10,2,81,39,11,30.20,30.14,30.07,10,10,10,16,8,22,0.00,0,,203
2013-2-14,64,50,35,13,10,7,34,23,13,30.15,30.11,30.04,10,10,10,21,11,25,0.00,0,,207
2013-2-15,41,32,23,30,25,11,89,67,33,30.44,30.34,30.15,10,10,10,17,8,22,0.00,3,,357
2013-2-16,60,40,21,24,17,10,91,47,17,30.47,30.37,30.24,10,10,10,17,9,17,0.00,0,,190
2013-2-17,68,53,38,19,15,10,37,23,11,30.24,30.07,29.95,10,10,10,23,14,29,0.00,0,,187
2013-2-18,66,51,36,19,9,2,28,18,9,30.15,30.06,29.94,10,10,10,23,11,31,0.00,0,,227
2013-2-19,61,50,39,29,19,6,56,33,23,30.18,30.11,30.00,10,10,7,14,5,18,0.00,3,,136
2013-2-20,75,56,36,33,20,0,78,34,6,30.03,29.78,29.57,10,10,7,34,12,47,0.00,1,,182
2013-2-21,56,45,34,26,17,7,66,37,15,29.99,29.89,29.72,10,10,5,33,19,41,0.00,1,,226
2013-2-22,60,43,26,16,12,8,51,31,16,30.08,30.03,29.98,10,10,10,21,7,30,0.00,0,,205
2013-2-23,64,48,31,20,14,9,52,27,12,30.12,30.03,29.91,10,10,7,21,9,26,0.00,0,,193
2013-2-24,71,56,41,18,8,-4,29,15,5,29.91,29.77,29.63,10,9,2,30,13,37,0.00,2,,207
2013-2-25,52,42,32,18,11,3,51,32,19,30.07,29.99,29.85,10,10,5,29,18,40,0.00,2,,254
2013-2-26,63,48,33,8,2,-6,32,18,6,30.04,29.96,29.89,10,10,10,23,13,33,0.00,0,,199
2013-2-27,52,40,28,18,10,-1,49,29,11,30.32,30.24,30.04,10,10,10,21,10,34,0.00,0,,40
2013-2-28,53,36,19,15,11,7,67,37,18,30.35,30.31,30.26,10,10,10,7,5,,0.03,0,,177